Regional Weather Roundup
Issued by NWS

Home | Current Version | Previous Version | Graphics & Text | Print | Product List | Glossary On
Versions: 1 2 3 4 5 6 7 8 9 10 11 12 13 14 15 16 17 18 19 20 21 22 23 24 25 26 27 28 29 30 31 32 33 34 35 36 37 38 39 40 41 42 43 44 45 46 47 48 49 50
584
ASUS43 KDMX 300503
RWRIA

WEATHER ROUNDUP FOR IOWA
NATIONAL WEATHER SERVICE DES MOINES IA
1200 AM CDT MON MAY 30 2016

NOTE: "FAIR" INDICATES FEW OR NO CLOUDS BELOW 12,000 FEET WITH NO
SIGNIFICANT WEATHER AND/OR OBSTRUCTIONS TO VISIBILITY.

* - THESE STATIONS ARE NOT NWS STATIONS...THUS NOT UNDER NWS
QUALITY CONTROL.  THEY ALSO DO NOT REPORT WEATHER SUCH
AS PRECIPITATION OR FOG.

IAZ001>003-012>014-020>022-031>034-043>046-300600-
   NORTHWEST IOWA

CITY           SKY/WX    TMP DP  RH WIND       PRES   REMARKS
CARROLL *      CLEAR     66  61  82 CALM      30.02F
CHEROKEE *     CLOUDY    59  57  94 CALM      30.02F
DENISON *      CLOUDY    66  57  72 CALM      30.01S
LE MARS *      CLOUDY    63  59  88 CALM      30.02F HAZE
ORANGE CITY *  CLOUDY    68  54  60 NE5       30.02F
SHELDON *      CLEAR     61  57  88 E3        30.02F
SIOUX CITY     CLOUDY    70  54  56 E8        30.00F
SPENCER        CLEAR     59  53  80 S3        30.04F
STORM LAKE *   CLEAR     66  54  63 NE7       30.04S
$$

IAZ055>058-069>071-079>083-090>094-300600-
   SOUTHWEST IOWA

CITY           SKY/WX    TMP DP  RH WIND       PRES   REMARKS
ATLANTIC *     PTCLDY    66  63  88 CALM      30.02F
AUDUBON *      PTCLDY    64  59  82 CALM      30.04F
CLARINDA *       N/A     70  64  83 MISG      30.04S
COUNCIL BLFS * CLEAR     72  57  60 S7        30.02S
CRESTON *      PTCLDY    72  63  73 SE7       30.05F
HARLAN  *      CLOUDY    68  63  83 CALM      30.06R
LAMONI         CLOUDY    68  62  81 SW6       30.04F
RED OAK *      CLOUDY    68  64  88 CALM      30.03S
SHENANDOAH *   CLOUDY    72  64  78 SW3       30.03S
$$

IAZ047>049-059>061-072>074-084-300600-
   CENTRAL IOWA

CITY           SKY/WX    TMP DP  RH WIND       PRES   REMARKS
AMES           CLOUDY    67  57  70 CALM      30.02S
ANKENY *       CLOUDY    63  61  94 CALM      30.02S
BOONE *        CLEAR     70  57  64 CALM      30.03S
CHARITON *     CLEAR     68  63  83 S5        30.04F
DES MOINES     CLOUDY    71  58  63 S5        30.02S
GRINNELL*      CLOUDY    70  57  64 S8        30.03S
KNOXVILLE *    CLOUDY    70  59  68 S5        30.02F
MARSHALLTOWN   CLOUDY    66  58  75 N3        30.02R
NEWTON *       CLOUDY    66  61  82 SW5       30.02S
PELLA *        CLOUDY    66  60  79 CALM      30.03F
PERRY *          N/A     70  59  68 CALM      30.03S
$$

IAZ004>006-015-016-023>025-035-036-300600-
   NORTH CENTRAL IOWA

CITY           SKY/WX    TMP DP  RH WIND       PRES   REMARKS
ALGONA *       CLEAR     63  54  72 CALM      30.04F
CLARION *      CLEAR     63  54  72 N6        30.03F
ESTHERVILLE    CLEAR     59  54  83 SW5       30.03F
FORT DODGE *   CLOUDY    61  52  72 E3        30.04S
MASON CITY     CLEAR     59  53  80 W6        30.04S
FOREST CITY *  CLEAR     55  54  94 CALM      30.04S
WEBSTER CITY * CLOUDY    66  55  68 CALM      30.01F
IOWA FALLS *     N/A     64  59  82 CALM      30.05S
$$

IAZ007>011-017>019-026>030-037>042-050>054-066-300600-
   NORTHEAST IOWA

CITY           SKY/WX    TMP DP  RH WIND       PRES   REMARKS
CEDAR RAPIDS   PTCLDY    67  59  75 S3        30.01S
CHARLES CITY * CLEAR     66  54  63 W8        30.03R
CLINTON *      CLOUDY    68  60  75 SW3       30.02F
DECORAH *      CLEAR     64  59  82 CALM      30.01R
DUBUQUE        MOCLDY    63  58  83 CALM      30.02S
MONTICELLO *   MOCLDY    64  61  88 CALM      30.02R
OELWEIN *      MOCLDY    66  59  77 SW5       30.03R
WATERLOO       CLEAR     65  61  87 CALM      30.01R
$$

IAZ064-065-067-068-078-300600-
   EAST CENTRAL IOWA

CITY           SKY/WX    TMP DP  RH WIND       PRES   REMARKS
DAVENPORT      CLOUDY    71  57  61 SW8       30.03S
IOWA CITY      CLEAR     67  57  70 CALM      30.03S
MT. PLEASANT * CLOUDY    68  63  83 S3        30.04F
MUSCATINE *    PTCLDY    68  59  73 S5        30.03S
QUAD CITIES    MOCLDY    72  56  57 CALM      30.02S
$$

IAZ062-063-075>077-085>089-095>099-300600-
   SOUTHEAST IOWA

CITY           SKY/WX    TMP DP  RH WIND       PRES   REMARKS
BURLINGTON     CLOUDY    67  60  78 CALM      30.04S
FAIRFIELD *      N/A    N/A N/A N/A MISG        N/A
FORT MADISON * CLOUDY    66  61  82 S5        30.05F
KEOKUK *       CLOUDY    70  63  78 CALM      30.04S
OSKALOOSA *      N/A     67  59  76 S5        30.04S
OTTUMWA        CLOUDY    68  61  78 S3        30.03F
WASHINGTON *   CLEAR     64 N/A N/A S7        30.04F
$$

ABBREVIATIONS USED IN REMARKS
   TC - TEMPERATURES IN CELSIUS
  WCI - WIND CHILL INDEX
   HX - HEAT INDEX
  VSB - VISIBILITY
$$





USA.gov is the U.S. government's official web portal to all federal, state and local government web resources and services.